[[{"header":{"parameterUnit":"m.s-1","parameterCategory":1,"la1":30.2991,"la2":30.254,"lo1":-89.0895,"lo2":-89.0444,"dy":0.0017,"dx":0.0017,"nx":28,"ny":28,"refTime":"2024-10-19T03:00:00:Z","depth":0,"parameterNumber":2,"parameterNumberName":"U-component_of_WINDS"},"data":[0,0,0,0,0,0,0,0,0,0,0,0,0,0,0,0,0,0,0,0,0,0,0,0,0,0,0,0,0,0,0,0,0,0,0,0,0,0,0,0,0,0,0,0,0,0,0,0,0,0,0,0,0,0,0,0,0,0,-2.7129,-2.7128,0,-2.7081,-2.7081,-2.708,-2.6987,-2.6985,-2.6983,-2.6982,-2.6935,-2.6936,-2.6936,0,0,0,0,0,0,0,0,0,0,0,0,0,-2.7142,-2.7142,-2.7129,-2.7128,-2.7128,-2.7081,-2.7081,-2.708,-2.6987,-2.6985,-2.6983,-2.6981,-2.6935,-2.6936,-2.6936,0,0,0,0,0,0,0,0,0,0,0,0,0,-2.7119,-2.7142,-2.7129,-2.7076,-2.707,-2.7082,-2.7081,-2.708,-2.6988,-2.6985,-2.6982,-2.698,-2.6935,-2.6936,-2.6937,-2.6996,0,0,-2.6939,-2.6939,0,0,0,0,0,0,0,0,-2.7121,-2.7119,-2.7084,-2.7079,-2.7073,-2.7037,-2.7068,-2.7052,-2.6989,-2.7019,-2.6982,-2.6978,-2.6972,-2.6969,-2.6966,-2.6994,-2.6992,-2.6939,-2.6939,-2.694,-2.694,0,0,0,0,0,0,0,-2.7122,-2.7121,-2.711,-2.7084,-2.7077,-2.7055,-2.7049,-2.7065,-2.7012,-2.7016,-2.701,-2.7005,-2.6968,-2.6966,-2.6965,-2.6991,-2.6939,-2.6939,-2.694,-2.694,-2.7068,-2.7071,0,0,0,0,0,0,-2.7131,-2.7122,-2.7112,-2.7109,-2.7091,-2.7057,-2.705,-2.7052,-2.7011,-2.7002,-2.7008,-2.7001,-2.6966,-2.6964,-2.6963,-2.7032,-2.694,-2.694,-2.6941,-2.7065,-2.7069,-2.7072,0,0,0,0,0,0,-2.7132,-2.7131,-2.7113,-2.7114,-2.711,-2.706,-2.7062,-2.7052,-2.705,-2.7004,-2.6995,-2.7015,-2.6964,-2.6962,-2.6989,-2.7029,-2.6941,-2.6941,-2.7062,-2.7066,-2.707,-2.7169,0,0,0,0,0,0,-2.7133,-2.7132,-2.7154,-2.7115,-2.711,-2.714,-2.7065,-2.7053,-2.7051,-2.7042,-2.7009,-2.7001,-2.6962,-2.6988,-2.699,-2.7028,-2.6942,-2.7058,-2.7064,-2.7069,-2.7162,-2.7177,-2.7189,0,0,0,0,0,-2.7134,-2.7183,-2.7155,-2.7154,-2.7136,-2.7142,-2.714,-2.7093,-2.7055,-2.7077,-2.7048,-2.7002,-2.7024,-2.6992,-2.6993,-2.7032,-2.7055,-2.7062,-2.7068,-2.7156,-2.7174,-2.7189,0,0,0,0,0,0,-2.7228,-2.7177,-2.7145,-2.7184,-2.7168,-2.7127,-2.7153,-2.7113,-2.7108,-2.71,-2.7043,-2.7036,-2.7072,-2.7054,-2.7019,-2.7089,-2.7032,-2.704,-2.7099,-2.7115,-2.7128,-2.7132,-2.6942,0,0,0,0,0,-2.7254,-2.7263,-2.7218,-2.7256,-2.725,-2.7203,-2.7204,-2.717,-2.7151,-2.7144,-2.7117,-2.7102,-2.7105,-2.7109,-2.711,-2.7159,-2.7152,-2.7186,-2.72,-2.7211,-2.7218,-2.7245,-2.7261,-2.7094,-2.7094,-2.7094,0,0,-2.7306,-2.7279,-2.7289,-2.7274,-2.7258,-2.727,-2.7198,-2.7213,-2.7221,-2.7147,-2.7171,-2.7151,-2.713,-2.7169,-2.7185,-2.7156,-2.7263,-2.7219,-2.7229,-2.723,-2.7254,-2.7269,-2.7284,-2.7098,-2.7097,-2.7097,0,0,-2.7408,-2.7388,-2.7419,-2.7404,-2.738,-2.7349,-2.7357,-2.7321,-2.7305,-2.7328,-2.7273,-2.7283,-2.729,-2.7278,-2.7273,-2.7372,-2.7331,-2.7374,-2.7444,-2.7471,-2.7484,-2.7495,-2.7533,-2.7547,-2.7381,-2.7381,-2.7381,0,-2.7477,-2.7491,-2.744,-2.7459,-2.7455,-2.7388,-2.7419,-2.7408,-2.7386,-2.7385,-2.7352,-2.7361,-2.7342,-2.7379,-2.7403,-2.74,-2.7409,-2.7378,-2.7486,-2.7497,-2.7507,-2.7542,-2.7556,-2.7387,-2.7386,-2.7386,-2.7385,0,-2.7578,-2.7589,-2.7617,-2.7597,-2.7597,-2.7622,-2.7575,-2.7581,-2.7547,-2.752,-2.7546,-2.7521,-2.7516,-2.7522,-2.7488,-2.7554,-2.7537,-2.7496,-2.7438,-2.7529,-2.7561,-2.7574,-2.7395,-2.7393,-2.7391,-2.739,0,0,-2.7738,-2.7691,-2.7702,-2.7693,-2.7663,-2.7671,-2.7694,-2.7689,-2.7696,-2.7683,-2.7702,-2.771,-2.7672,-2.7667,-2.7632,-2.7655,-2.7738,-2.7611,-2.761,-2.7637,-2.7812,-2.7844,-2.786,-2.771,-2.7712,-2.7714,-2.7814,0,-2.7835,-2.7871,-2.7826,-2.7872,-2.7883,-2.7819,-2.7839,-2.7824,-2.7799,-2.7806,-2.7778,-2.7786,-2.7734,-2.7731,-2.7751,-2.7724,-2.7773,-2.7716,-2.7729,-2.773,-2.7738,-2.7877,-2.791,-2.8006,-2.7826,-2.7828,-2.7829,0,-2.7952,-2.7946,-2.7993,-2.7961,-2.7964,-2.7983,-2.7976,-2.7982,-2.7964,-2.7944,-2.7939,-2.7897,-2.7919,-2.7862,-2.7892,-2.7855,-2.7857,-2.7845,-2.7848,-2.7848,-2.7786,-2.7883,-2.8035,-2.805,-2.7848,-2.7847,-2.7845,0,-2.8067,-2.807,-2.8099,-2.8093,-2.8056,-2.8071,-2.8057,-2.8035,-2.8036,-2.803,-2.803,-2.8027,-2.8026,-2.8025,-2.7984,-2.7946,-2.802,-2.796,-2.8007,-2.8008,-2.8026,-2.8026,-2.8183,-2.8025,-2.8025,-2.8025,-2.8024,0,-2.818,-2.8213,-2.815,-2.8169,-2.8203,-2.8151,-2.8187,-2.8166,-2.8148,-2.8162,-2.8107,-2.8122,-2.8066,-2.8075,-2.8043,-2.8075,-2.8074,-2.806,-2.8052,-2.8066,-2.8068,-2.8068,-2.8061,-2.8028,-2.8028,-2.8027,-2.8026,0,-2.8315,-2.8274,-2.8302,-2.8265,-2.8257,-2.8284,-2.8253,-2.8269,-2.8241,-2.826,-2.8261,-2.8217,-2.8226,-2.8184,-2.8185,-2.8164,-2.8212,-2.8191,-2.8218,-2.8213,-2.8262,-2.8259,-2.8426,-2.8447,-2.8275,-2.8276,-2.8278,0,-2.8391,-2.8414,-2.838,-2.8385,-2.8373,-2.8382,-2.8383,-2.8333,-2.8336,-2.8318,-2.8337,-2.834,-2.834,-2.8357,-2.8326,-2.8327,-2.8307,-2.8365,-2.8307,-2.8321,-2.831,-2.831,-2.8313,-2.8378,-2.838,-2.8382,-2.8383,0,-2.8531,-2.851,-2.8512,-2.8508,-2.851,-2.8505,-2.8496,-2.8504,-2.845,-2.8456,-2.8464,-2.8464,-2.8465,-2.847,-2.8465,-2.8451,-2.841,-2.8402,-2.8413,-2.8429,-2.8445,-2.8439,-2.8254,-2.8399,-2.8397,-2.8396,-2.8395,-2.8395,-2.8639,-2.8658,-2.8637,-2.8642,-2.863,-2.8623,-2.8637,-2.8611,-2.8616,-2.8613,-2.8583,-2.8597,-2.858,-2.8568,-2.8559,-2.857,-2.8542,-2.8558,-2.8562,-2.8568,-2.8577,-2.8442,-2.8568,-2.8568,-2.8567,-2.8567,-2.8567,0,-2.8778,-2.8761,-2.8766,-2.8756,-2.8761,-2.872,-2.8708,-2.8715,-2.8728,-2.8714,-2.8716,-2.8726,-2.8731,-2.8701,-2.8702,-2.8717,-2.8698,-2.8719,-2.8718,-2.8716,-2.8601,-2.8592,-2.8734,-2.8734,-2.8734,-2.8734,-2.8734,-2.8734,-2.885,-2.888,-2.8857,-2.8881,-2.8864,-2.8877,-2.8875,-2.8869,-2.8858,-2.8872,-2.8875,-2.8855,-2.8836,-2.8836,-2.8839,-2.883,-2.8834,-2.8863,-2.8848,-2.874,-2.8724,-2.8709,-2.87,-2.8863,-2.8864,-2.8962,-2.8963,-2.8964]},{"header":{"parameterUnit":"m.s-1","parameterCategory":1,"la1":30.2991,"la2":30.254,"lo1":-89.0895,"lo2":-89.0444,"dy":0.0017,"dx":0.0017,"nx":28,"ny":28,"refTime":"2024-10-19T03:00:00:Z","depth":0,"parameterNumber":3,"parameterNumberName":"V-component_of_WINDS"},"data":[0,0,0,0,0,0,0,0,0,0,0,0,0,0,0,0,0,0,0,0,0,0,0,0,0,0,0,0,0,0,0,0,0,0,0,0,0,0,0,0,0,0,0,0,0,0,0,0,0,0,0,0,0,0,0,0,0,0,-1.7416,-1.7416,0,-1.7476,-1.7476,-1.7477,-1.7489,-1.7489,-1.7488,-1.7488,-1.7549,-1.7551,-1.7553,0,0,0,0,0,0,0,0,0,0,0,0,0,-1.7312,-1.7313,-1.7416,-1.7416,-1.7417,-1.7475,-1.7476,-1.7477,-1.7489,-1.7489,-1.7488,-1.7488,-1.7548,-1.7551,-1.7553,0,0,0,0,0,0,0,0,0,0,0,0,0,-1.7363,-1.7314,-1.7416,-1.743,-1.7432,-1.7475,-1.7476,-1.7477,-1.749,-1.7489,-1.7488,-1.7488,-1.7547,-1.755,-1.7553,-1.7586,0,0,-1.7563,-1.7564,0,0,0,0,0,0,0,0,-1.736,-1.7366,-1.7427,-1.7429,-1.7432,-1.7474,-1.7462,-1.7514,-1.749,-1.7468,-1.7488,-1.7487,-1.7525,-1.7529,-1.7542,-1.7589,-1.7591,-1.7563,-1.7565,-1.7566,-1.7567,0,0,0,0,0,0,0,-1.7356,-1.7364,-1.7439,-1.7428,-1.7431,-1.7434,-1.744,-1.7472,-1.7499,-1.747,-1.7471,-1.7478,-1.7526,-1.7539,-1.7544,-1.7592,-1.7563,-1.7566,-1.7567,-1.7569,-1.7669,-1.767,0,0,0,0,0,0,-1.735,-1.7361,-1.7437,-1.7441,-1.7393,-1.7436,-1.7444,-1.7461,-1.7499,-1.7504,-1.7478,-1.7478,-1.7534,-1.754,-1.7546,-1.7588,-1.7566,-1.7569,-1.7571,-1.7668,-1.7669,-1.767,0,0,0,0,0,0,-1.7348,-1.7357,-1.7435,-1.7401,-1.7412,-1.7439,-1.7459,-1.7463,-1.7476,-1.7505,-1.751,-1.7487,-1.7534,-1.7542,-1.7576,-1.759,-1.757,-1.7573,-1.7667,-1.7669,-1.767,-1.767,0,0,0,0,0,0,-1.7345,-1.7356,-1.7369,-1.7402,-1.7413,-1.7464,-1.7459,-1.7464,-1.7482,-1.7482,-1.7515,-1.752,-1.7534,-1.7571,-1.7579,-1.7594,-1.7576,-1.7666,-1.7668,-1.7669,-1.7669,-1.7671,-1.7673,0,0,0,0,0,-1.7341,-1.7366,-1.7369,-1.7378,-1.743,-1.7465,-1.7472,-1.7488,-1.7483,-1.7496,-1.7514,-1.7519,-1.7586,-1.7575,-1.7584,-1.7599,-1.7665,-1.7667,-1.7669,-1.7668,-1.7671,-1.7673,0,0,0,0,0,0,-1.7334,-1.7371,-1.7375,-1.7411,-1.7435,-1.7467,-1.7484,-1.749,-1.7516,-1.7515,-1.7533,-1.7541,-1.7574,-1.759,-1.7576,-1.7633,-1.7626,-1.7629,-1.7622,-1.7625,-1.7627,-1.7623,-1.7578,0,0,0,0,0,-1.7336,-1.7362,-1.7393,-1.7422,-1.7434,-1.7457,-1.7473,-1.7483,-1.7508,-1.7519,-1.754,-1.7564,-1.7591,-1.7608,-1.7635,-1.7671,-1.7679,-1.7686,-1.7688,-1.7689,-1.7693,-1.7714,-1.7718,-1.7676,-1.7676,-1.7676,0,0,-1.7342,-1.7365,-1.7381,-1.7421,-1.7441,-1.7467,-1.7465,-1.7493,-1.7513,-1.7523,-1.7557,-1.7573,-1.7602,-1.7637,-1.7654,-1.7651,-1.7706,-1.7692,-1.7693,-1.7696,-1.7717,-1.7721,-1.7724,-1.7678,-1.7677,-1.7677,0,0,-1.7367,-1.7386,-1.7414,-1.7433,-1.7463,-1.7479,-1.7485,-1.7516,-1.7528,-1.7562,-1.7571,-1.7594,-1.764,-1.766,-1.7676,-1.7708,-1.7714,-1.7716,-1.7727,-1.7748,-1.7751,-1.7755,-1.7768,-1.7772,-1.7719,-1.7719,-1.7719,0,-1.737,-1.7411,-1.7427,-1.7455,-1.7473,-1.7482,-1.751,-1.7529,-1.7565,-1.7578,-1.7574,-1.7632,-1.7651,-1.7693,-1.7701,-1.7713,-1.7721,-1.7713,-1.775,-1.7753,-1.7756,-1.7769,-1.7773,-1.7719,-1.7719,-1.7719,-1.7719,0,-1.7414,-1.7442,-1.746,-1.7497,-1.7516,-1.7544,-1.7564,-1.7582,-1.759,-1.7606,-1.7641,-1.7665,-1.7697,-1.7707,-1.7715,-1.7749,-1.7747,-1.7746,-1.774,-1.776,-1.7772,-1.7777,-1.772,-1.772,-1.772,-1.7719,0,0,-1.7437,-1.7482,-1.7488,-1.7505,-1.7539,-1.7561,-1.7589,-1.762,-1.7636,-1.766,-1.7685,-1.7723,-1.7723,-1.7741,-1.7751,-1.7769,-1.7795,-1.7766,-1.7767,-1.7772,-1.7836,-1.7838,-1.7843,-1.7798,-1.7799,-1.7799,-1.7834,0,-1.7468,-1.7519,-1.7534,-1.7577,-1.7603,-1.7613,-1.7637,-1.766,-1.7675,-1.77,-1.7716,-1.7744,-1.774,-1.7752,-1.777,-1.7788,-1.7808,-1.7785,-1.7822,-1.7823,-1.7817,-1.785,-1.7852,-1.7884,-1.7839,-1.784,-1.784,0,-1.751,-1.7536,-1.7582,-1.7613,-1.7625,-1.7647,-1.7677,-1.77,-1.7726,-1.7736,-1.7757,-1.7765,-1.7795,-1.7785,-1.7827,-1.7811,-1.7827,-1.7838,-1.784,-1.7845,-1.7834,-1.7858,-1.7894,-1.7899,-1.7848,-1.7847,-1.7847,0,-1.7524,-1.7571,-1.7605,-1.7619,-1.7655,-1.767,-1.7686,-1.7712,-1.773,-1.7756,-1.7768,-1.7797,-1.7813,-1.7835,-1.7852,-1.7843,-1.7893,-1.7884,-1.7902,-1.7902,-1.7914,-1.7914,-1.7955,-1.7921,-1.7921,-1.792,-1.792,0,-1.7558,-1.7586,-1.7612,-1.7633,-1.7665,-1.7681,-1.7712,-1.7729,-1.7751,-1.7776,-1.7785,-1.7807,-1.7827,-1.7852,-1.7864,-1.7898,-1.7905,-1.7914,-1.7917,-1.7914,-1.7914,-1.7926,-1.7925,-1.7922,-1.7922,-1.7921,-1.7921,0,-1.758,-1.7599,-1.7637,-1.7668,-1.7676,-1.7699,-1.7726,-1.7746,-1.7761,-1.7792,-1.78,-1.7824,-1.7854,-1.7872,-1.791,-1.7918,-1.7956,-1.7957,-1.7947,-1.7949,-1.7968,-1.7966,-1.8021,-1.8029,-1.7987,-1.7987,-1.7987,0,-1.7601,-1.7624,-1.7657,-1.7675,-1.7691,-1.7718,-1.7737,-1.7753,-1.7772,-1.7804,-1.7821,-1.7852,-1.7878,-1.7926,-1.7946,-1.7975,-1.7979,-1.7996,-1.7983,-1.798,-1.7981,-1.7981,-1.7984,-1.7998,-1.7999,-1.7999,-1.7999,0,-1.7638,-1.7646,-1.7672,-1.7703,-1.7725,-1.7749,-1.7773,-1.7786,-1.7807,-1.7828,-1.7859,-1.7879,-1.7918,-1.7949,-1.798,-1.7996,-1.8002,-1.8003,-1.8009,-1.8007,-1.8001,-1.8007,-1.7955,-1.8002,-1.8002,-1.8001,-1.8001,-1.8001,-1.7662,-1.7682,-1.7709,-1.7739,-1.7759,-1.7781,-1.7803,-1.782,-1.7847,-1.788,-1.7888,-1.7921,-1.7947,-1.7989,-1.8006,-1.8032,-1.803,-1.8038,-1.8041,-1.8043,-1.8045,-1.7995,-1.8038,-1.8038,-1.8038,-1.8038,-1.8038,0,-1.77,-1.7718,-1.7745,-1.7779,-1.7802,-1.7805,-1.7831,-1.7851,-1.788,-1.7904,-1.7929,-1.7965,-1.7995,-1.8018,-1.8048,-1.8065,-1.8068,-1.8073,-1.8073,-1.8077,-1.8044,-1.8037,-1.807,-1.807,-1.807,-1.807,-1.807,-1.807,-1.7723,-1.7758,-1.777,-1.7815,-1.7832,-1.7865,-1.7881,-1.7902,-1.7921,-1.7961,-1.7986,-1.8,-1.8024,-1.8056,-1.8084,-1.809,-1.8102,-1.8106,-1.8112,-1.8082,-1.8079,-1.8076,-1.8069,-1.8108,-1.8108,-1.8143,-1.8143,-1.8143]}]]